Retour au catalogue

STARLINK-32686

ActifCommunicationsVLEO
NORAD 62192·PAYLOAD·🇺🇸 United States

Lancé Dec 4, 2024 depuis Cape Canaveral Space Force Station

Loading…

Prochains Passages (prochaines 24 heures)

TLE

FraisSource: CelesTrak SupGP

Époque: Sep 15, 2026, 03:20 UTC

1 62192C 24229A   26258.13937500 -.00012205  00000+0 -44193-3 0  2583
2 62192  43.0026 277.1872 0001520 271.1446 216.4539 15.27594785    18

Suivez STARLINK-32686 en temps réel avec AllMySat

Download on the App Store